Simultaneous Nadir Overpasses (SNOs) Predictions

Prediction of SNOs between GOES-16 and NOAA-20 Satellite Orbit:

Table of predicted SNOs for the next 14.0 days since TLE Epoch: 6/15/2019
Index Date Time (GOES-16) GOES-16 Lat,Lon NOAA-20 Lat,Lon Distance(km) Time Diff (sec)
1 06/15/2019 18:39:09 -0.01, -75.18 -0.79, -78.78 409.66 80
2 06/16/2019 18:23:03 -0.01, -75.17 0.20, -74.24 105.86 80
3 06/18/2019 06:44:51 0.01, -75.17 0.97, -79.51 495.26 80
4 06/19/2019 06:23:25 0.00, -75.16 -0.02, -74.98 20.52 80
5 06/21/2019 18:26:36 0.00, -75.14 -0.13, -75.75 69.31 80
6 06/22/2019 18:10:31 0.01, -75.14 0.86, -71.22 447.10 80
7 06/24/2019 06:32:18 -0.01, -75.15 0.31, -76.49 152.47 80
8 06/25/2019 06:10:53 -0.01, -75.15 -0.74, -71.96 364.29 80
9 06/26/2019 18:32:49 0.01, -75.15 -0.45, -77.26 240.20 80
10 06/27/2019 18:16:43 0.01, -75.16 0.54, -72.73 276.96 80




NCC Satellite Simultaneous Nadir Overpasses (SNOs) Prediction Service
